Location: Bílinka
(49.3579°N, 14.3767°E)
Time: 09:16:08
(UTC+00:00)

FENGYUN 1C DEB - Pass Details

Date: 23 February 2024
Orbit: 850 x 890 km, 98.8° (Epoch: 12 April)

Event Time Altitude Azimuth Distance (km) Brightness Sun altitude
Rises 17:12:13 0° 144° (SE) 3,407 ? -6.8°
Reaches altitude 10° 17:14:38 10° 138° (SE) 2,478 ? -7.2°
Maximum altitude 17:19:52 47° 66° (ENE) 1,124 ? -8.1°
Drops below altitude 10° 17:25:10 10° 355° (N) 2,512 ? -8.9°
Sets 17:27:38 0° 349° (N) 3,459 ? -9.3°
